SKYSAT-C9

Last updated on Thu Nov 21 2024 00:02:27 GMT+0000 (Coordinated Universal Time)

1 42989U 17068C 24324.85086212 .00021511 00000+0 66907-3 0 9991 2 42989 97.3767 88.3126 0006215 111.2506 248.9400 15.33317744394608
UTC large
Height (km)
Speed (km/s)
/
Latitude / Longitude
Inclination (degrees)
Orbital Period (minutes)
Azimuth
Elevation
Range (km)
Doppler Factor

Next 0 passes for location: London (51.5072 / 0.1276)

Sorry there are no passes over London.